Weather History for MCMWTC BRIDGEPORT, CA, CA

Change the Weather History Date:

Tuesday, December 24, 2013

  Actual Average (KTVL) Record (KTVL)
Temperature  
Mean Temperature 34 °F 29 °F  
Max Temperature 54 °F 43 °F 50 °F (2010)
Min Temperature 15 °F 16 °F -13 °F (1970)
Degree Days  
Heating Degree Days 30 36  
Month to date heating degree days 840  
Since 1 July heating degree days 2933  
Cooling Degree Days 0 0  
Month to date cooling degree days 0  
Year to date cooling degree days 31  
Moisture  
Dew Point 16 °F    
Average Humidity 64    
Maximum Humidity 81    
Minimum Humidity 24    
Precipitation  
Precipitation 0.00 in - 3.00 in (1964)
Month to date precipitation  
Year to date precipitation  
Sea Level Pressure  
Sea Level Pressure 30.50 in    
Wind  
Wind Speed 1 mph (SE)    
Max Wind Speed 14 mph    
Max Gust Speed 18 mph    
Visibility 10 miles    
Events      
T = Trace of Precipitation, MM = Missing Value Source: NWS Daily Summary

Daily Weather History Graph

Daily Weather History Graph

Search for Another Location

Airport:

Trip Planner

Search our weather history database for the weather conditions in past years. The results will help you decide how hot, cold, wet, or windy it might be!

Date:

Astronomy

Dec. 24, 2013 Rise Set
Actual Time 7:13 AM PST 4:42 PM PST
Civil Twilight 6:43 AM PST 5:12 PM PST
Nautical Twilight 6:10 AM PST 5:45 PM PST
Astronomical Twilight 5:37 AM PST 6:18 PM PST
Moon 11:50 PM PST (12/24) 11:14 AM PST (12/24)
Length of Visible Light 10h 29m
Length of Day
9h 29m
Waning Gibbous, 57% of the Moon is Illuminated
Dec 24
Waning Gibbous
Dec 25
Last Quarter
Jan 1
New
Jan 7
First Quarter
Jan 15
Full

Hourly Weather History & Observations

Time (PST) Temp. Windchill Dew Point Humidity Pressure Visibility Wind Dir Wind Speed Gust Speed Precip Events Conditions
12:52 AM 21.0 °F - 15.1 °F 78% 30.43 in 10.0 mi Calm Calm - N/A   Clear
1:52 AM 19.9 °F - 14.0 °F 78% 30.44 in 10.0 mi Calm Calm - N/A   Clear
2:52 AM 19.9 °F - 14.0 °F 78% 30.46 in 10.0 mi Calm Calm - N/A   Clear
3:52 AM 17.1 °F - 12.0 °F 81% 30.49 in 10.0 mi Calm Calm - N/A   Clear
4:52 AM 18.0 °F - 12.9 °F 81% 30.51 in 10.0 mi Calm Calm - N/A   Clear
5:52 AM 15.1 °F - 10.0 °F 80% 30.55 in 10.0 mi Calm Calm - N/A   Clear
6:52 AM 15.1 °F - 10.0 °F 80% 30.58 in 10.0 mi Calm Calm - N/A   Clear
7:52 AM 15.1 °F - 9.0 °F 77% 30.59 in 10.0 mi Calm Calm - N/A   Clear
8:52 AM 21.0 °F - 15.1 °F 78% 30.59 in 10.0 mi Calm Calm - N/A   Clear
9:52 AM 30.9 °F - 18.0 °F 59% 30.53 in 10.0 mi Calm Calm - N/A   Clear
10:52 AM 39.0 °F - 19.0 °F 45% 30.48 in 10.0 mi Calm Calm - N/A   Clear
11:52 AM 48.0 °F - 19.9 °F 33% 30.41 in 10.0 mi Calm Calm - N/A   Clear
12:52 PM 52.0 °F - 19.0 °F 27% 30.36 in 10.0 mi Calm Calm - N/A   Clear
1:52 PM 54.0 °F - 18.0 °F 24% 30.35 in 10.0 mi Variable 4.6 mph - N/A   Clear
2:52 PM 48.0 °F - 24.1 °F 39% 30.39 in 10.0 mi SE 13.8 mph 18.4 mph N/A   Clear
3:52 PM 45.0 °F 41.2 °F 24.1 °F 44% 30.43 in 10.0 mi Variable 6.9 mph - N/A   Clear
4:52 PM 37.9 °F - 21.9 °F 53% 30.48 in 10.0 mi Calm Calm - N/A   Clear
5:52 PM 34.0 °F - 21.9 °F 61% 30.53 in 10.0 mi Calm Calm - N/A   Clear
6:52 PM 28.0 °F - 18.0 °F 66% 30.58 in 10.0 mi Calm Calm - N/A   Clear
7:52 PM 25.0 °F - 17.1 °F 72% 30.61 in 10.0 mi Calm Calm - N/A   Clear
8:52 PM 23.0 °F - 16.0 °F 74% 30.60 in 10.0 mi Calm Calm - N/A   Clear
9:52 PM 21.9 °F - 15.1 °F 75% 30.57 in 10.0 mi Calm Calm - N/A   Clear
10:52 PM 19.9 °F - 12.9 °F 74% 30.55 in 10.0 mi Calm Calm - N/A   Clear
11:52 PM 18.0 °F - 12.0 °F 78% 30.52 in 10.0 mi Calm Calm - N/A   Clear